Time,TemperatureF,DewpointF,PressureIn,WindDirection,WindDirectionDegrees,WindSpeedMPH,WindSpeedGustMPH,Humidity,HourlyPrecipIn,Conditions,Clouds,dailyrainin,SoftwareType,DateUTC
2013-02-02 00:03:00,59.0,45.0,30.27,NE,44,5.0,-999.0,59,-99.99,,,-99.99,,2013-02-02 05:03:00,
2013-02-02 00:22:00,58.0,44.0,30.27,ENE,74,2.0,-999.0,59,-99.99,,,-99.99,,2013-02-02 05:22:00,
2013-02-02 00:33:00,58.0,45.0,30.26,ENE,66,1.0,-999.0,61,-99.99,,,-99.99,,2013-02-02 05:33:00,
2013-02-02 01:02:00,58.0,44.0,30.25,ENE,63,6.0,-999.0,59,-99.99,,,-99.99,,2013-02-02 06:02:00,
2013-02-02 01:12:00,58.0,44.0,30.25,ENE,63,6.0,-999.0,59,-99.99,,,-99.99,,2013-02-02 06:12:00,
2013-02-02 01:22:00,55.0,40.0,30.25,NW,318,2.0,-999.0,56,-99.99,,,-99.99,,2013-02-02 06:22:00,
2013-02-02 01:32:00,52.0,37.0,30.25,NNW,331,2.0,-999.0,56,-99.99,,,-99.99,,2013-02-02 06:32:00,
2013-02-02 01:42:00,52.0,37.0,30.25,NNW,331,2.0,-999.0,56,-99.99,,,-99.99,,2013-02-02 06:42:00,
2013-02-02 01:51:00,51.0,36.0,30.25,NNW,344,2.0,-999.0,56,-99.99,,,-99.99,,2013-02-02 06:51:00,
2013-02-02 02:02:00,51.0,37.0,30.25,NNW,344,1.0,-999.0,58,-99.99,,,-99.99,,2013-02-02 07:02:00,
2013-02-02 02:12:00,51.0,40.0,30.25,NNW,346,0.0,-999.0,65,-99.99,,,-99.99,,2013-02-02 07:12:00,
2013-02-02 02:21:00,51.0,40.0,30.25,NNW,346,0.0,-999.0,65,-99.99,,,-99.99,,2013-02-02 07:21:00,
2013-02-02 02:32:00,51.0,40.0,30.24,NNE,30,2.0,-999.0,66,-99.99,,,-99.99,,2013-02-02 07:32:00,
2013-02-02 02:42:00,51.0,40.0,30.24,NNE,30,2.0,-999.0,66,-99.99,,,-99.99,,2013-02-02 07:42:00,
2013-02-02 02:51:00,52.0,43.0,30.24,NE,38,4.0,-999.0,72,-99.99,,,-99.99,,2013-02-02 07:51:00,
2013-02-02 03:01:00,53.0,43.0,30.24,NE,34,7.0,-999.0,69,-99.99,,,-99.99,,2013-02-02 08:01:00,
2013-02-02 03:11:00,53.0,43.0,30.24,NE,34,7.0,-999.0,69,-99.99,,,-99.99,,2013-02-02 08:11:00,
2013-02-02 03:21:00,53.0,43.0,30.24,NE,34,7.0,-999.0,69,-99.99,,,-99.99,,2013-02-02 08:21:00,
2013-02-02 03:31:00,52.0,44.0,30.24,NE,44,6.0,-999.0,74,-99.99,,,-99.99,,2013-02-02 08:31:00,
2013-02-02 03:41:00,52.0,44.0,30.24,NE,44,6.0,-999.0,74,-99.99,,,-99.99,,2013-02-02 08:41:00,
2013-02-02 03:52:00,52.0,44.0,30.24,North,9,7.0,-999.0,75,-99.99,,,-99.99,,2013-02-02 08:52:00,
2013-02-02 04:01:00,52.0,44.0,30.24,North,9,7.0,-999.0,75,-99.99,,,-99.99,,2013-02-02 09:01:00,
2013-02-02 04:11:00,52.0,44.0,30.24,North,9,7.0,-999.0,75,-99.99,,,-99.99,,2013-02-02 09:11:00,
2013-02-02 04:22:00,52.0,45.0,30.24,NE,42,7.0,-999.0,77,-99.99,,,-99.99,,2013-02-02 09:22:00,
2013-02-02 04:32:00,51.0,44.0,30.24,NE,47,4.0,-999.0,76,-99.99,,,-99.99,,2013-02-02 09:32:00,
2013-02-02 04:42:00,51.0,44.0,30.24,NE,47,4.0,-999.0,76,-99.99,,,-99.99,,2013-02-02 09:42:00,
2013-02-02 04:52:00,51.0,44.0,30.24,NE,47,4.0,-999.0,76,-99.99,,,-99.99,,2013-02-02 09:52:00,
2013-02-02 05:02:00,50.0,42.0,30.25,North,360,2.0,-999.0,75,-99.99,,,-99.99,,2013-02-02 10:02:00,
2013-02-02 05:11:00,50.0,42.0,30.25,North,360,2.0,-999.0,75,-99.99,,,-99.99,,2013-02-02 10:11:00,
2013-02-02 05:21:00,49.0,43.0,30.24,NNE,24,3.0,-999.0,81,-99.99,,,-99.99,,2013-02-02 10:21:00,
2013-02-02 05:32:00,50.0,44.0,30.24,NE,49,3.0,-999.0,81,-99.99,,,-99.99,,2013-02-02 10:32:00,
2013-02-02 05:42:00,50.0,44.0,30.24,NE,49,3.0,-999.0,81,-99.99,,,-99.99,,2013-02-02 10:42:00,
2013-02-02 05:52:00,50.0,44.0,30.24,NE,49,5.0,-999.0,81,-99.99,,,-99.99,,2013-02-02 10:52:00,
2013-02-02 06:02:00,52.0,46.0,30.24,NE,46,12.0,-999.0,79,-99.99,,,-99.99,,2013-02-02 11:02:00,
2013-02-02 06:11:00,52.0,46.0,30.24,NE,46,12.0,-999.0,79,-99.99,,,-99.99,,2013-02-02 11:11:00,
2013-02-02 06:21:00,52.0,46.0,30.25,NE,53,11.0,-999.0,79,-99.99,,,-99.99,,2013-02-02 11:21:00,
2013-02-02 06:32:00,52.0,45.0,30.26,NE,48,12.0,-999.0,78,-99.99,,,-99.99,,2013-02-02 11:32:00,
2013-02-02 06:42:00,52.0,45.0,30.26,NE,48,12.0,-999.0,78,-99.99,,,-99.99,,2013-02-02 11:42:00,
2013-02-02 06:52:00,52.0,45.0,30.26,NE,48,12.0,-999.0,78,-99.99,,,-99.99,,2013-02-02 11:52:00,
2013-02-02 07:02:00,52.0,45.0,30.26,NE,47,10.0,-999.0,78,-99.99,,,-99.99,,2013-02-02 12:02:00,
2013-02-02 07:11:00,52.0,45.0,30.26,NE,47,10.0,-999.0,78,-99.99,,,-99.99,,2013-02-02 12:11:00,
2013-02-02 07:22:00,52.0,45.0,30.26,NE,47,10.0,-999.0,78,-99.99,,,-99.99,,2013-02-02 12:22:00,
2013-02-02 07:32:00,52.0,45.0,30.26,ENE,58,11.0,-999.0,77,-99.99,,,-99.99,,2013-02-02 12:32:00,
2013-02-02 07:42:00,52.0,45.0,30.26,ENE,58,11.0,-999.0,77,-99.99,,,-99.99,,2013-02-02 12:42:00,
2013-02-02 07:52:00,52.0,46.0,30.26,ENE,69,11.0,-999.0,79,-99.99,,,-99.99,,2013-02-02 12:52:00,
2013-02-02 08:03:00,53.0,47.0,30.27,NE,51,11.0,-999.0,79,-99.99,,,-99.99,,2013-02-02 13:03:00,
2013-02-02 08:11:00,53.0,47.0,30.27,NE,51,11.0,-999.0,79,-99.99,,,-99.99,,2013-02-02 13:11:00,
2013-02-02 08:22:00,53.0,46.0,30.27,NE,46,12.0,-999.0,78,-99.99,,,-99.99,,2013-02-02 13:22:00,
2013-02-02 08:33:00,54.0,47.0,30.27,NE,38,11.0,-999.0,77,-99.99,,,-99.99,,2013-02-02 13:33:00,
2013-02-02 08:42:00,54.0,47.0,30.27,NE,38,11.0,-999.0,77,-99.99,,,-99.99,,2013-02-02 13:42:00,
2013-02-02 08:52:00,55.0,48.0,30.27,NE,34,12.0,-999.0,77,-99.99,,,-99.99,,2013-02-02 13:52:00,
2013-02-02 09:03:00,56.0,48.0,30.27,NE,54,12.0,-999.0,75,-99.99,,,-99.99,,2013-02-02 14:03:00,
2013-02-02 09:12:00,56.0,48.0,30.27,NE,54,12.0,-999.0,75,-99.99,,,-99.99,,2013-02-02 14:12:00,
2013-02-02 09:22:00,57.0,49.0,30.27,NE,40,12.0,-999.0,74,-99.99,,,-99.99,,2013-02-02 14:22:00,
2013-02-02 09:33:00,58.0,49.0,30.27,NE,42,10.0,-999.0,71,-99.99,,,-99.99,,2013-02-02 14:33:00,
2013-02-02 09:42:00,58.0,49.0,30.27,NE,42,10.0,-999.0,71,-99.99,,,-99.99,,2013-02-02 14:42:00,
2013-02-02 09:52:00,58.0,48.0,30.27,NE,51,10.0,-999.0,70,-99.99,,,-99.99,,2013-02-02 14:52:00,
2013-02-02 10:03:00,60.0,49.0,30.27,NE,41,10.0,-999.0,67,-99.99,,,-99.99,,2013-02-02 15:03:00,
2013-02-02 10:13:00,60.0,49.0,30.27,NE,41,10.0,-999.0,67,-99.99,,,-99.99,,2013-02-02 15:13:00,
2013-02-02 10:22:00,61.0,49.0,30.27,NE,52,8.0,-999.0,65,-99.99,,,-99.99,,2013-02-02 15:22:00,
2013-02-02 10:33:00,60.0,49.0,30.27,NE,42,10.0,-999.0,66,-99.99,,,-99.99,,2013-02-02 15:33:00,
2013-02-02 10:42:00,60.0,49.0,30.27,NE,42,10.0,-999.0,66,-99.99,,,-99.99,,2013-02-02 15:42:00,
2013-02-02 10:52:00,61.0,49.0,30.27,NE,42,10.0,-999.0,64,-99.99,,,-99.99,,2013-02-02 15:52:00,
2013-02-02 11:03:00,62.0,49.0,30.27,NE,40,9.0,-999.0,62,-99.99,,,-99.99,,2013-02-02 16:03:00,
2013-02-02 11:12:00,62.0,49.0,30.27,NE,40,9.0,-999.0,62,-99.99,,,-99.99,,2013-02-02 16:12:00,
2013-02-02 11:23:00,63.0,49.0,30.26,NE,48,8.0,-999.0,60,-99.99,,,-99.99,,2013-02-02 16:23:00,
2013-02-02 11:32:00,64.0,49.0,30.25,NE,51,8.0,-999.0,59,-99.99,,,-99.99,,2013-02-02 16:32:00,
2013-02-02 11:42:00,64.0,49.0,30.25,NE,51,8.0,-999.0,59,-99.99,,,-99.99,,2013-02-02 16:42:00,
2013-02-02 11:52:00,65.0,49.0,30.24,ENE,59,9.0,-999.0,56,-99.99,,,-99.99,,2013-02-02 16:52:00,
2013-02-02 12:03:00,66.0,48.0,30.23,NE,42,8.0,-999.0,53,-99.99,,,-99.99,,2013-02-02 17:03:00,
2013-02-02 12:11:00,66.0,48.0,30.23,NE,42,8.0,-999.0,53,-99.99,,,-99.99,,2013-02-02 17:11:00,
2013-02-02 12:22:00,68.0,51.0,30.23,NE,53,7.0,-999.0,55,-99.99,,,-99.99,,2013-02-02 17:22:00,
2013-02-02 12:32:00,69.0,49.0,30.22,NE,55,5.0,-999.0,49,-99.99,,,-99.99,,2013-02-02 17:32:00,
2013-02-02 12:42:00,69.0,49.0,30.22,NE,55,5.0,-999.0,49,-99.99,,,-99.99,,2013-02-02 17:42:00,
2013-02-02 12:52:00,69.0,52.0,30.21,NE,53,6.0,-999.0,54,-99.99,,,-99.99,,2013-02-02 17:52:00,
2013-02-02 13:03:00,72.0,50.0,30.21,ENE,78,2.0,-999.0,46,-99.99,,,-99.99,,2013-02-02 18:03:00,
2013-02-02 13:12:00,72.0,50.0,30.21,ENE,78,2.0,-999.0,46,-99.99,,,-99.99,,2013-02-02 18:12:00,
2013-02-02 13:22:00,71.0,50.0,30.20,ENE,63,5.0,-999.0,48,-99.99,,,-99.99,,2013-02-02 18:22:00,
2013-02-02 13:32:00,71.0,49.0,30.19,ESE,109,4.0,-999.0,46,-99.99,,,-99.99,,2013-02-02 18:32:00,
2013-02-02 13:42:00,71.0,49.0,30.19,ESE,109,4.0,-999.0,46,-99.99,,,-99.99,,2013-02-02 18:42:00,
2013-02-02 13:52:00,70.0,49.0,30.18,ESE,112,6.0,-999.0,48,-99.99,,,-99.99,,2013-02-02 18:52:00,
2013-02-02 14:02:00,72.0,54.0,30.17,East,98,3.0,-999.0,54,-99.99,,,-99.99,,2013-02-02 19:02:00,
2013-02-02 14:12:00,72.0,54.0,30.17,East,98,3.0,-999.0,54,-99.99,,,-99.99,,2013-02-02 19:12:00,
2013-02-02 14:22:00,71.0,52.0,30.16,SE,145,3.0,-999.0,52,-99.99,,,-99.99,,2013-02-02 19:22:00,
2013-02-02 14:32:00,72.0,51.0,30.16,ENE,70,2.0,-999.0,48,-99.99,,,-99.99,,2013-02-02 19:32:00,
2013-02-02 14:42:00,72.0,51.0,30.16,ENE,70,2.0,-999.0,48,-99.99,,,-99.99,,2013-02-02 19:42:00,
2013-02-02 14:51:00,74.0,50.0,30.15,ENE,67,1.0,-999.0,43,-99.99,,,-99.99,,2013-02-02 19:51:00,
2013-02-02 15:02:00,76.0,49.0,30.14,East,84,0.0,-999.0,39,-99.99,,,-99.99,,2013-02-02 20:02:00,
2013-02-02 15:12:00,76.0,49.0,30.14,East,84,0.0,-999.0,39,-99.99,,,-99.99,,2013-02-02 20:12:00,
2013-02-02 15:22:00,75.0,48.0,30.14,East,84,0.0,-999.0,39,-99.99,,,-99.99,,2013-02-02 20:22:00,
2013-02-02 15:32:00,77.0,51.0,30.14,NE,56,2.0,-999.0,41,-99.99,,,-99.99,,2013-02-02 20:32:00,
2013-02-02 15:42:00,77.0,51.0,30.14,NE,56,2.0,-999.0,41,-99.99,,,-99.99,,2013-02-02 20:42:00,
2013-02-02 15:52:00,77.0,51.0,30.13,NE,49,2.0,-999.0,41,-99.99,,,-99.99,,2013-02-02 20:52:00,
2013-02-02 16:02:00,77.0,49.0,30.13,NE,49,0.0,-999.0,38,-99.99,,,-99.99,,2013-02-02 21:02:00,
2013-02-02 16:11:00,77.0,49.0,30.13,NE,49,0.0,-999.0,38,-99.99,,,-99.99,,2013-02-02 21:11:00,
2013-02-02 16:21:00,77.0,49.0,30.12,NE,49,2.0,-999.0,37,-99.99,,,-99.99,,2013-02-02 21:21:00,
2013-02-02 16:32:00,77.0,49.0,30.12,NE,49,2.0,-999.0,37,-99.99,,,-99.99,,2013-02-02 21:32:00,
2013-02-02 16:42:00,77.0,49.0,30.12,NE,49,2.0,-999.0,37,-99.99,,,-99.99,,2013-02-02 21:42:00,
2013-02-02 16:52:00,79.0,49.0,30.12,NE,49,0.0,-999.0,35,-99.99,,,-99.99,,2013-02-02 21:52:00,
2013-02-02 17:03:00,79.0,49.0,30.12,NE,49,1.0,-999.0,35,-99.99,,,-99.99,,2013-02-02 22:03:00,
2013-02-02 17:12:00,79.0,49.0,30.12,NE,49,1.0,-999.0,35,-99.99,,,-99.99,,2013-02-02 22:12:00,
2013-02-02 17:21:00,79.0,50.0,30.11,NE,49,0.0,-999.0,36,-99.99,,,-99.99,,2013-02-02 22:21:00,
2013-02-02 17:32:00,78.0,50.0,30.11,NE,49,0.0,-999.0,37,-99.99,,,-99.99,,2013-02-02 22:32:00,
2013-02-02 17:42:00,78.0,50.0,30.11,NE,49,0.0,-999.0,37,-99.99,,,-99.99,,2013-02-02 22:42:00,
2013-02-02 17:52:00,77.0,48.0,30.11,NE,49,0.0,-999.0,36,-99.99,,,-99.99,,2013-02-02 22:52:00,
2013-02-02 18:02:00,76.0,49.0,30.12,NE,36,0.0,-999.0,38,-99.99,,,-99.99,,2013-02-02 23:02:00,
2013-02-02 18:11:00,76.0,49.0,30.12,NE,36,0.0,-999.0,38,-99.99,,,-99.99,,2013-02-02 23:11:00,
2013-02-02 18:22:00,72.0,49.0,30.12,NW,312,4.0,-999.0,44,-99.99,,,-99.99,,2013-02-02 23:22:00,
2013-02-02 18:32:00,72.0,49.0,30.12,NW,312,4.0,-999.0,44,-99.99,,,-99.99,,2013-02-02 23:32:00,
2013-02-02 18:42:00,72.0,49.0,30.12,NW,312,4.0,-999.0,44,-99.99,,,-99.99,,2013-02-02 23:42:00,
2013-02-02 18:52:00,68.0,49.0,30.12,NW,310,3.0,-999.0,50,-99.99,,,-99.99,,2013-02-02 23:52:00,
2013-02-02 19:02:00,67.0,48.0,30.12,NW,304,4.0,-999.0,50,-99.99,,,-99.99,,2013-02-03 00:02:00,
2013-02-02 19:11:00,67.0,48.0,30.12,NW,304,4.0,-999.0,50,-99.99,,,-99.99,,2013-02-03 00:11:00,
2013-02-02 19:22:00,66.0,49.0,30.13,NW,306,5.0,-999.0,54,-99.99,,,-99.99,,2013-02-03 00:22:00,
2013-02-02 19:32:00,66.0,49.0,30.13,NW,306,5.0,-999.0,54,-99.99,,,-99.99,,2013-02-03 00:32:00,
2013-02-02 19:42:00,66.0,49.0,30.13,NW,306,5.0,-999.0,54,-99.99,,,-99.99,,2013-02-03 00:42:00,
2013-02-02 19:52:00,66.0,49.0,30.13,NW,306,5.0,-999.0,54,-99.99,,,-99.99,,2013-02-03 00:52:00,
2013-02-02 20:02:00,63.0,53.0,30.14,NW,309,4.0,-999.0,69,-99.99,,,-99.99,,2013-02-03 01:02:00,
2013-02-02 20:11:00,63.0,53.0,30.14,NW,309,4.0,-999.0,69,-99.99,,,-99.99,,2013-02-03 01:11:00,
2013-02-02 20:21:00,63.0,53.0,30.14,NW,309,4.0,-999.0,69,-99.99,,,-99.99,,2013-02-03 01:21:00,
2013-02-02 20:32:00,62.0,52.0,30.14,NW,306,4.0,-999.0,71,-99.99,,,-99.99,,2013-02-03 01:32:00,
2013-02-02 20:42:00,62.0,52.0,30.14,NW,306,4.0,-999.0,71,-99.99,,,-99.99,,2013-02-03 01:42:00,
2013-02-02 20:52:00,62.0,53.0,30.15,NW,306,3.0,-999.0,72,-99.99,,,-99.99,,2013-02-03 01:52:00,
2013-02-02 21:01:00,61.0,52.0,30.15,NW,307,3.0,-999.0,72,-99.99,,,-99.99,,2013-02-03 02:01:00,
2013-02-02 21:11:00,61.0,52.0,30.15,NW,307,3.0,-999.0,72,-99.99,,,-99.99,,2013-02-03 02:11:00,
2013-02-02 21:21:00,61.0,52.0,30.16,NW,310,2.0,-999.0,73,-99.99,,,-99.99,,2013-02-03 02:21:00,
2013-02-02 21:32:00,61.0,53.0,30.16,NW,318,1.0,-999.0,74,-99.99,,,-99.99,,2013-02-03 02:32:00,
2013-02-02 21:42:00,61.0,53.0,30.16,NW,318,1.0,-999.0,74,-99.99,,,-99.99,,2013-02-03 02:42:00,
2013-02-02 21:52:00,60.0,52.0,30.16,NW,322,0.0,-999.0,75,-99.99,,,-99.99,,2013-02-03 02:52:00,
2013-02-02 22:02:00,60.0,52.0,30.16,NW,322,1.0,-999.0,76,-99.99,,,-99.99,,2013-02-03 03:02:00,
2013-02-02 22:11:00,59.0,52.0,30.15,NW,322,0.0,-999.0,77,-99.99,,,-99.99,,2013-02-03 03:11:00,
2013-02-02 22:22:00,59.0,52.0,30.15,NW,322,0.0,-999.0,77,-99.99,,,-99.99,,2013-02-03 03:22:00,
2013-02-02 22:32:00,59.0,52.0,30.15,NW,322,0.0,-999.0,78,-99.99,,,-99.99,,2013-02-03 03:32:00,
2013-02-02 22:42:00,59.0,52.0,30.15,NW,322,0.0,-999.0,78,-99.99,,,-99.99,,2013-02-03 03:42:00,
2013-02-02 22:51:00,58.0,52.0,30.15,NW,322,0.0,-999.0,79,-99.99,,,-99.99,,2013-02-03 03:51:00,
2013-02-02 23:01:00,58.0,52.0,30.15,NW,322,0.0,-999.0,79,-99.99,,,-99.99,,2013-02-03 04:01:00,
2013-02-02 23:11:00,58.0,52.0,30.15,NW,322,0.0,-999.0,79,-99.99,,,-99.99,,2013-02-03 04:11:00,
2013-02-02 23:21:00,58.0,51.0,30.14,NW,322,1.0,-999.0,78,-99.99,,,-99.99,,2013-02-03 04:21:00,
2013-02-02 23:32:00,58.0,51.0,30.14,NW,323,1.0,-999.0,78,-99.99,,,-99.99,,2013-02-03 04:32:00,
2013-02-02 23:42:00,58.0,51.0,30.14,NW,323,1.0,-999.0,78,-99.99,,,-99.99,,2013-02-03 04:42:00,
2013-02-02 23:52:00,57.0,50.0,30.14,NNW,329,1.0,-999.0,77,-99.99,,,-99.99,,2013-02-03 04:52:00,